This is the latest recevied weather packets stored in our database for station/object HB9TJR-3. If no packets are shown the sender has not sent any weather packets the latest 10 day(s).
| Time | Temp. | Humidity | Pressure | Rain* | Wind** | Luminosity | Snow |
|---|---|---|---|---|---|---|---|
| 1787882579 | 18.89° C | 85% | 865.9 hPa | 0 mm | - | - | - |
| 1787881891 | 18.89° C | 85% | 865.9 hPa | 0 mm | - | - | - |
| 1787880931 | 18.89° C | 87% | 866.2 hPa | 0 mm | - | - | - |
| 1787879971 | 18.89° C | 87% | 866.2 hPa | 0 mm | - | - | - |
| 1787879011 | 18.89° C | 85% | 866.1 hPa | 0 mm | - | - | - |
| 1787878539 | 18.89° C | 85% | 866.2 hPa | 0 mm | - | - | - |
| 1787878051 | 18.89° C | 85% | 866.2 hPa | 0 mm | - | - | - |
| 1787877091 | 18.89° C | 84% | 866.2 hPa | 0 mm | - | - | - |
| 1787876131 | 19.44° C | 83% | 866 hPa | 0 mm | - | - | - |
| 1787875171 | 19.44° C | 83% | 866.2 hPa | 0 mm | - | - | - |
| 1787874211 | 19.44° C | 83% | 866.1 hPa | 0 mm | - | - | - |
| 1787873251 | 19.44° C | 82% | 865.9 hPa | 0 mm | - | - | - |
| 1787872291 | 19.44° C | 79% | 865.9 hPa | 0 mm | - | - | - |
| 1787871332 | 19.44° C | 77% | 866.1 hPa | 0 mm | - | - | - |
| 1787870371 | 19.44° C | 78% | 866.2 hPa | 0 mm | - | - | - |
| 1787869411 | 19.44° C | 79% | 866.1 hPa | 0 mm | - | - | - |
| 1787869123 | 20° C | 80% | 866.1 hPa | 0 mm | - | - | - |
| 1787868451 | 20° C | 80% | 866.1 hPa | 0 mm | - | - | - |
| 1787868236 | 20° C | 80% | 866.2 hPa | 0 mm | - | - | - |
| 1787867491 | 20° C | 80% | 866.2 hPa | 0 mm | - | - | - |
| 1787866531 | 19.44° C | 77% | 866.6 hPa | 0 mm | - | - | - |
| 1787866089 | 20° C | 76% | 866.4 hPa | 0 mm | - | - | - |
| 1787865571 | 19.44° C | 76% | 866.5 hPa | 0 mm | - | - | - |
| 1787864610 | 20° C | 76% | 866.4 hPa | 0 mm | - | - | - |
| 1787863651 | 20° C | 75% | 866.4 hPa | 0 mm | - | - | - |
* Rain latest hour (hover to see other rain measurements)
** Current wind speed in m/s (hover to see current wind gust speed)